Weather History for Kiana, AK

Change the Weather History Date:

Sunday, February 3, 2013

  Actual Average (PASK) Record (PASK)
Temperature  
Mean Temperature 14 °F -  
Max Temperature 7 °F 2 °F 32 °F (2007)
Min Temperature 6 °F -8 °F -47 °F (1999)
Degree Days  
Heating Degree Days 52    
Moisture  
Dew Point 11 °F    
Average Humidity 82    
Maximum Humidity 92    
Minimum Humidity 72    
Precipitation  
Precipitation 0.00 in - - ()
Sea Level Pressure  
Sea Level Pressure 29.67 in    
Wind  
Wind Speed 8 mph (East)    
Max Wind Speed 15 mph    
Max Gust Speed 22 mph    
Visibility 9 miles    
Events Snow    
Averages and records for this station are not official NWS values.
T = Trace of Precipitation, MM = Missing Value Source: NWS Daily Summary

Daily Weather History Graph

Daily Weather History Graph

Search for Another Location

Airport:

Trip Planner

Search our weather history database for the weather conditions in past years. The results will help you decide how hot, cold, wet, or windy it might be!

Date:

Astronomy

Feb. 03, 2013 Rise Set
Actual Time 10:37 AM AKST 5:14 PM AKST
Civil Twilight 9:32 AM AKST 6:20 PM AKST
Nautical Twilight 8:26 AM AKST 7:25 PM AKST
Astronomical Twilight 7:24 AM AKST 8:27 PM AKST
Moon 4:39 AM AKST (2/3) 10:33 AM AKST (2/3)
Length of Visible Light 8h 47m
Length of Day
6h 37m
Waning Gibbous, 47% of the Moon is Illuminated
Feb 3
Waning Gibbous
Feb 9
New
Feb 17
First Quarter
Feb 25
Full
Mar 4
Last Quarter

Hourly Weather History & Observations

Time (AKST) Temp. Windchill Dew Point Humidity Pressure Visibility Wind Dir Wind Speed Gust Speed Precip Events Conditions
12:01 AM 17.1 °F 5.8 °F 12.9 °F 84% 29.75 in 7.0 mi East 9.2 mph 17.3 mph 0.00 in Snow Light Snow
12:56 AM 17.6 °F 3.7 °F 12.2 °F 79% 29.61 in 7.0 mi East 13.8 mph - 0.00 in Snow Light Snow
1:01 AM 17.1 °F 3.6 °F 12.9 °F 84% 29.75 in 7.0 mi East 12.7 mph 21.9 mph 0.00 in Snow Light Snow
1:36 AM 17.6 °F 3.7 °F 12.2 °F 79% 29.61 in 8.0 mi East 13.8 mph 19.6 mph 0.00 in Snow Light Snow
2:01 AM 17.1 °F 2.5 °F 12.9 °F 84% 29.74 in 7.0 mi East 15.0 mph 21.9 mph 0.00 in Snow Light Snow
3:01 AM 18.0 °F 5.4 °F 12.9 °F 81% 29.73 in 9.0 mi East 11.5 mph 18.4 mph 0.00 in Snow Light Snow
4:01 AM 19.0 °F 8.2 °F 14.0 °F 81% 29.70 in 9.0 mi East 9.2 mph - 0.00 in Snow Light Snow
5:01 AM 19.0 °F 6.1 °F 14.0 °F 81% 29.69 in 9.0 mi East 12.7 mph 19.6 mph 0.00 in Snow Light Snow
5:42 AM 19.4 °F 8.6 °F 14.0 °F 80% 29.56 in 9.0 mi East 9.2 mph - 0.00 in Snow Light Snow
6:01 AM 19.9 °F 10.1 °F 14.0 °F 78% 29.68 in 9.0 mi ESE 8.1 mph - 0.00 in Snow Light Snow
6:28 AM 19.4 °F 12.8 °F 15.8 °F 86% 29.55 in 9.0 mi ENE 4.6 mph - 0.00 in Snow Light Snow
7:01 AM 19.9 °F 9.3 °F 14.0 °F 78% 29.67 in 9.0 mi East 9.2 mph 17.3 mph 0.00 in Snow Light Snow
8:01 AM 17.1 °F - 14.0 °F 88% 29.67 in 9.0 mi Calm Calm - 0.00 in Snow Light Snow
9:01 AM 17.1 °F 11.7 °F 14.0 °F 88% 29.67 in 8.0 mi ENE 3.5 mph - 0.00 in Snow Light Snow
10:01 AM 16.0 °F 10.4 °F 14.0 °F 92% 29.66 in 6.0 mi ENE 3.5 mph - 0.00 in Snow Light Snow
11:01 AM 16.0 °F 8.8 °F 14.0 °F 92% 29.66 in 6.0 mi ENE 4.6 mph - 0.00 in Snow Light Snow
12:01 PM 15.1 °F 7.7 °F 12.9 °F 91% 29.66 in 9.0 mi NE 4.6 mph - 0.00 in Snow Light Snow
1:01 PM 16.0 °F 8.8 °F 12.9 °F 88% 29.66 in 9.0 mi NE 4.6 mph - 0.00 in Snow Light Snow
2:01 PM 17.1 °F - 12.9 °F 84% 29.66 in 9.0 mi Calm Calm - 0.00 in Snow Light Snow
3:01 PM 18.0 °F - 14.0 °F 84% 29.66 in 10.0 mi Calm Calm - N/A   Overcast
4:01 PM 18.0 °F - 12.9 °F 81% 29.66 in 10.0 mi Calm Calm - N/A   Overcast
5:01 PM 17.1 °F 11.7 °F 12.9 °F 84% 29.66 in 10.0 mi East 3.5 mph - N/A   Overcast
6:01 PM 14.0 °F 5.1 °F 9.0 °F 80% 29.68 in 10.0 mi ESE 5.8 mph - N/A   Overcast
7:01 PM 12.0 °F 4.1 °F 6.1 °F 77% 29.68 in 10.0 mi East 4.6 mph - N/A   Overcast
8:01 PM 10.4 °F 0.8 °F 5.0 °F 79% 29.56 in 10.0 mi East 5.8 mph - N/A   Overcast
9:01 PM 10.0 °F -0.9 °F 3.9 °F 76% 29.70 in 10.0 mi East 6.9 mph - N/A   Overcast
10:01 PM 10.0 °F 0.4 °F 3.0 °F 73% 29.72 in 10.0 mi ENE 5.8 mph - N/A   Overcast
11:01 PM 8.1 °F -3.2 °F 1.0 °F 73% 29.74 in 10.0 mi East 6.9 mph - N/A   Overcast
11:45 PM 6.8 °F -3.5 °F -0.4 °F 72% 29.62 in 10.0 mi East 5.8 mph - N/A   Overcast